FW0984 Weather Reports


Display with metric or nautical units.
time (UTC)temp
F
wind
direction
speed
MPH
gust
MPH
rain 1hr
in
rain 24hr
in
rain mn
in
humidity
%
barometer
mb
20260904154557 91 163 0.0 0.0 0.00 0.00 0.00 64 1016.2
20260904153102 90 272 0.0 0.0 0.00 0.00 0.00 67 1016.2
20260904151550 90 248 0.0 0.0 0.00 0.00 0.00 70 1016.0
20260904150048 89 286 0.0 0.0 0.00 0.00 0.00 67 1016.1
20260904144542 88 172 0.0 0.0 0.00 0.00 0.00 73 1016.1
20260904143038 86 197 0.0 0.0 0.00 0.00 0.00 73 1016.0
20260904141537 85 75 0.0 0.0 0.00 0.00 0.00 80 1016.0
20260904140029 77 87 0.0 0.0 0.00 0.00 0.00 97 1016.0
20260904134525 76 159 0.0 0.0 0.00 0.00 0.00 97 1016.1
20260904133022 75 159 0.0 0.0 0.00 0.00 0.00 97 1016.2
20260904131521 75 159 0.0 0.0 0.00 0.00 0.00 97 1016.3
20260904130016 74 159 0.0 0.0 0.00 0.00 0.00 97 1016.2
20260904124515 73 159 0.0 0.0 0.00 0.00 0.00 97 1016.3
20260904123013 73 159 0.0 0.0 0.00 0.00 0.00 96 1016.2
20260904121513 72 159 0.0 0.0 0.00 0.00 0.00 96 1016.1
20260904120009 71 159 0.0 0.0 0.00 0.00 0.00 96 1015.8
20260904114505 71 159 0.0 0.0 0.00 0.00 0.00 95 1015.6
20260904113002 71 159 0.0 0.0 0.00 0.00 0.00 95 1015.6
20260904111601 71 159 0.0 0.0 0.00 0.00 0.00 95 1015.4
20260904110058 71 159 0.0 0.0 0.00 0.00 0.00 95 1015.0
20260904104559 72 159 0.0 0.0 0.00 0.00 0.00 95 1014.9
20260904103102 72 159 0.0 0.0 0.00 0.00 0.00 95 1014.8
20260904101601 72 159 0.0 0.0 0.00 0.00 0.00 95 1015.0
20260904100053 72 159 0.0 0.0 0.00 0.00 0.00 95 1015.1
20260904094550 72 159 0.0 0.0 0.00 0.00 0.00 95 1015.0
20260904093049 72 159 0.0 0.0 0.00 0.00 0.00 95 1014.9
20260904091549 72 159 0.0 0.0 0.00 0.00 0.00 95 1015.0
20260904090048 72 159 0.0 0.0 0.00 0.00 0.00 95 1015.1
20260904084547 72 159 0.0 0.0 0.00 0.00 0.00 95 1015.1
20260904083054 72 159 0.0 0.0 0.00 0.00 0.00 95 1015.0
20260904081545 72 159 0.0 0.0 0.00 0.00 0.00 95 1015.1
20260904080045 72 159 0.0 0.0 0.00 0.00 0.00 95 1015.1
20260904074554 72 159 0.0 0.0 0.00 0.00 0.00 95 1015.1
20260904073044 72 159 0.0 0.0 0.00 0.00 0.00 95 1015.2
20260904071542 72 159 0.0 0.0 0.00 0.00 0.00 94 1015.3
20260904070041 73 159 0.0 0.0 0.00 0.00 0.00 95 1015.3
20260904064539 73 159 0.0 0.0 0.00 0.00 0.00 95 1015.5
20260904063052 73 159 0.0 0.0 0.00 0.00 0.00 95 1015.5
20260904061537 73 159 0.0 0.0 0.00 0.00 0.00 95 1015.6
20260904060058 73 159 0.0 0.0 0.00 0.00 0.00 95 1015.7
20260904054533 73 159 0.0 0.0 0.00 0.00 0.00 95 1015.7
20260904053035 73 159 0.0 0.0 0.00 0.00 0.00 95 1015.6
20260904051531 74 159 0.0 0.0 0.00 0.00 0.00 95 1015.6
20260904050032 73 159 0.0 0.0 0.00 0.00 0.00 94 1015.7
20260904044539 74 159 0.0 0.0 0.00 0.00 0.00 94 1015.6
20260904043024 74 159 0.0 0.0 0.00 0.00 0.00 94 1015.5
20260904041522 74 159 0.0 0.0 0.00 0.00 0.00 93 1015.5
20260904040018 74 159 0.0 0.0 0.00 0.00 0.00 94 1015.4
20260904034519 75 159 0.0 0.0 0.00 0.00 0.00 93 1015.3
20260904033016 75 159 0.0 0.0 0.00 0.00 0.00 92 1015.3
20260904031516 76 159 0.0 0.0 0.00 0.00 0.00 91 1015.3
20260904030016 76 159 0.0 0.0 0.00 0.00 0.00 91 1015.4
20260904024515 76 159 0.0 0.0 0.00 0.00 0.00 90 1015.5
20260904023015 76 159 0.0 0.0 0.00 0.00 0.00 89 1015.5
20260904021520 77 159 0.0 0.0 0.00 0.00 0.00 88 1015.5
20260904020014 77 159 0.0 0.0 0.00 0.00 0.00 88 1015.5
20260904014520 77 159 0.0 0.0 0.00 0.00 0.00 88 1015.5
20260904013013 78 159 0.0 0.0 0.00 0.00 0.00 88 1015.5
20260904011525 78 159 0.0 0.0 0.00 0.00 0.00 87 1015.5
20260904010112 79 159 0.0 0.0 0.00 0.00 0.00 84 1015.5
20260904004511 80 159 0.0 0.0 0.00 0.00 0.00 81 1015.2
20260904003111 80 159 0.0 0.0 0.00 0.00 0.00 82 1015.0
20260904001511 82 180 0.0 0.0 0.00 0.00 0.00 77 1015.0
20260904000009 84 180 0.0 0.0 0.00 0.00 0.00 71 1014.9
20260903234509 86 180 0.0 0.0 0.00 0.00 0.00 67 1014.8
20260903233008 86 180 0.0 0.0 0.00 0.00 0.00 68 1014.7
20260903231508 86 180 0.0 0.0 0.00 0.00 0.00 67 1014.6
20260903230010 86 180 0.0 0.0 0.00 0.00 0.00 67 1014.7
20260903224520 87 180 0.0 0.0 0.00 0.00 0.00 66 1014.7
20260903223007 88 278 0.0 0.0 0.00 0.00 0.00 62 1014.6
20260903221508 88 260 0.0 0.0 0.00 0.00 0.00 61 1014.3
20260903220009 88 310 0.0 0.0 0.00 0.00 0.00 63 1014.1
20260903214505 88 297 0.0 0.0 0.00 0.00 0.00 63 1013.8
20260903213004 87 291 0.0 0.0 0.00 0.00 0.00 64 1013.8
20260903211511 89 313 0.0 0.0 0.00 0.00 0.00 60 1013.9
20260903210004 91 279 0.0 0.0 0.00 0.00 0.00 59 1014.0
20260903204504 91 302 0.0 0.0 0.00 0.00 0.00 57 1014.1
20260903203100 91 282 0.0 0.0 0.00 0.00 0.00 55 1014.3
20260903201558 92 302 0.0 0.0 0.00 0.00 0.00 56 1014.5
20260903200056 92 290 0.0 0.0 0.00 0.00 0.00 53 1014.8
20260903194555 92 292 0.0 0.0 0.00 0.00 0.00 57 1015.1
20260903193054 91 323 0.0 0.0 0.00 0.00 0.00 56 1015.1
20260903191551 92 275 0.0 0.0 0.00 0.00 0.00 54 1015.3
20260903190051 93 277 0.0 0.0 0.00 0.00 0.00 55 1015.5
20260903184557 93 295 0.0 0.0 0.00 0.00 0.00 57 1015.6
20260903183049 93 307 0.0 0.0 0.00 0.00 0.00 58 1015.7
20260903181547 93 280 0.0 0.0 0.00 0.00 0.00 55 1015.7
20260903180048 93 278 0.0 0.0 0.00 0.00 0.00 54 1015.8
20260903174558 93 249 0.0 0.0 0.00 0.00 0.00 56 1016.0
20260903173042 92 280 0.0 0.0 0.00 0.00 0.00 53 1016.1
20260903171539 92 283 0.0 0.0 0.00 0.00 0.00 58 1016.2
20260903170103 92 294 0.0 0.0 0.00 0.00 0.00 59 1016.3
20260903164542 92 256 0.0 0.0 0.00 0.00 0.00 59 1016.4
20260903163034 91 298 0.0 0.0 0.00 0.00 0.00 61 1016.7
20260903161531 91 269 0.0 0.0 0.00 0.00 0.00 63 1016.7